Weather History for Fryeburg, ME

Change the Weather History Date:

Tuesday, February 19, 2013

  Actual Average Record
Temperature  
Mean Temperature 21 °F -  
Max Temperature 37 °F 32 °F 57 °F (1997)
Min Temperature 5 °F 8 °F -5 °F (2005)
Degree Days  
Heating Degree Days 44    
Moisture  
Dew Point 15 °F    
Average Humidity 68    
Maximum Humidity 100    
Minimum Humidity 25    
Precipitation  
Precipitation 0.20 in - - ()
Sea Level Pressure  
Sea Level Pressure 29.86 in    
Wind  
Wind Speed 2 mph (NNE)    
Max Wind Speed 9 mph    
Max Gust Speed -    
Visibility 7 miles    
Events Rain , Snow    
Averages and records for this station are not official NWS values.
T = Trace of Precipitation, MM = Missing Value Source: NWS Daily Summary

Daily Weather History Graph

Daily Weather History Graph

Search for Another Location

Airport:

Trip Planner

Search our weather history database for the weather conditions in past years. The results will help you decide how hot, cold, wet, or windy it might be!

Date:

Astronomy

Feb. 19, 2013 Rise Set
Actual Time 6:36 AM EST 5:19 PM EST
Civil Twilight 6:07 AM EST 5:48 PM EST
Nautical Twilight 5:33 AM EST 6:22 PM EST
Astronomical Twilight 5:00 AM EST 6:55 PM EST
Moon 11:41 AM EST (2/19) 2:12 AM EST (2/19)
Length of Visible Light 11h 41m
Length of Day
10h 42m
Waxing Gibbous, 67% of the Moon is Illuminated
Feb 19
Waxing Gibbous
Feb 25
Full
Mar 4
Last Quarter
Mar 11
New
Mar 19
First Quarter

Hourly Weather History & Observations

Time (EST) Temp. Windchill Dew Point Humidity Pressure Visibility Wind Dir Wind Speed Gust Speed Precip Events Conditions
12:54 AM 6.1 °F - -7.1 °F 55% 30.07 in 10.0 mi Calm Calm - N/A   Clear
1:54 AM 5.0 °F - -7.1 °F 58% 30.09 in 10.0 mi Calm Calm - N/A   Clear
2:54 AM 5.0 °F - -7.1 °F 58% 30.11 in 10.0 mi Calm Calm - N/A   Clear
3:54 AM 16.0 °F 5.3 °F -6.0 °F 38% 30.10 in 10.0 mi West 8.1 mph - N/A   Overcast
4:54 AM 18.0 °F - -6.0 °F 35% 30.11 in 10.0 mi Calm Calm - N/A   Mostly Cloudy
5:54 AM 10.0 °F - -2.0 °F 58% 30.10 in 10.0 mi Calm Calm - 0.00 in   Clear
7:54 AM 15.1 °F - -0.9 °F 49% 30.09 in 10.0 mi Calm Calm - N/A   Clear
8:54 AM 21.0 °F - -2.9 °F 35% 30.06 in 10.0 mi Calm Calm - 0.00 in   Clear
9:54 AM 26.1 °F - -2.9 °F 28% 30.07 in 10.0 mi Calm Calm - 0.00 in   Clear
10:54 AM 33.1 °F 28.7 °F 1.9 °F 27% 30.05 in 10.0 mi East 4.6 mph - 0.00 in   Partly Cloudy
11:54 AM 35.1 °F 31.0 °F 1.9 °F 25% 30.03 in 10.0 mi ENE 4.6 mph - N/A   Clear
1:54 PM 37.9 °F 32.1 °F 8.1 °F 29% 29.95 in 10.0 mi East 8.1 mph - N/A   Clear
2:54 PM 36.0 °F 29.0 °F 9.0 °F 33% 29.94 in 10.0 mi ESE 9.2 mph - N/A   Clear
3:54 PM 34.0 °F 31.0 °F 15.1 °F 46% 29.91 in 10.0 mi East 3.5 mph - N/A   Mostly Cloudy
4:54 PM 34.0 °F 29.8 °F 17.1 °F 50% 29.87 in 10.0 mi East 4.6 mph - N/A   Overcast
5:17 PM 33.8 °F 30.8 °F 17.6 °F 52% 29.84 in 10.0 mi NE 3.5 mph - 0.00 in Rain Light Rain
5:54 PM 30.9 °F 27.5 °F 24.1 °F 76% 29.86 in 2.0 mi NNW 3.5 mph - 0.00 in Snow Light Snow
6:02 PM 30.2 °F 25.4 °F 24.8 °F 80% 29.83 in 1.8 mi NW 4.6 mph - 0.00 in Snow Light Snow
6:09 PM 30.2 °F 26.7 °F 26.6 °F 86% 29.82 in 2.5 mi NW 3.5 mph - 0.00 in Snow Light Snow
6:25 PM 30.2 °F - 26.6 °F 86% 29.81 in 4.0 mi Calm Calm - 0.00 in Snow Light Snow
7:34 PM 28.4 °F - 26.6 °F 93% 29.76 in 4.0 mi Calm Calm - 0.01 in Snow Light Snow
7:46 PM 28.4 °F 24.6 °F 26.6 °F 93% 29.75 in 2.5 mi NNW 3.5 mph - 0.01 in Snow Light Snow
7:54 PM 28.9 °F 25.2 °F 27.0 °F 92% 29.77 in 4.0 mi NNW 3.5 mph - 0.01 in Snow Light Snow
8:13 PM 28.4 °F - 26.6 °F 93% 29.74 in 1.8 mi Calm Calm - 0.01 in Snow Light Snow
8:24 PM 28.4 °F - 26.6 °F 93% 29.73 in 1.2 mi Calm Calm - 0.02 in Snow Light Snow
8:54 PM 28.9 °F - 27.0 °F 92% 29.73 in 2.5 mi Calm Calm - 0.05 in Snow Light Snow
9:01 PM 28.4 °F - 26.6 °F 93% 29.70 in 5.0 mi Calm Calm - 0.01 in Snow Light Snow
9:21 PM 30.2 °F - 28.4 °F 93% 29.67 in 7.0 mi Calm Calm - 0.02 in Rain Light Freezing Rain
9:37 PM 30.2 °F - 28.4 °F 93% 29.66 in 5.0 mi Calm Calm - 0.03 in Rain Light Freezing Rain
9:54 PM 30.0 °F - 28.9 °F 96% 29.68 in 4.0 mi Calm Calm - 0.04 in Rain Light Freezing Rain
10:54 PM 30.9 °F - 30.9 °F 100% 29.62 in 5.0 mi Calm Calm - 0.07 in Rain Light Freezing Rain
11:17 PM 32.0 °F - 30.2 °F 93% 29.59 in 5.0 mi Calm Calm - 0.02 in Rain Light Freezing Rain
11:46 PM 32.0 °F - 30.2 °F 93% 29.57 in 6.0 mi Calm Calm - 0.03 in Rain Light Freezing Rain
11:54 PM 32.0 °F - 30.9 °F 96% 29.57 in 7.0 mi Calm Calm - 0.03 in Rain Light Freezing Rain